This is the latest recevied weather packets stored in our database for station/object SP4LIN-15. If no packets are shown the sender has not sent any weather packets the latest 10 day(s).
| Time | Temp. | Humidity | Pressure | Rain* | Wind** | Luminosity | Snow |
|---|---|---|---|---|---|---|---|
| 1777722279 | 30° C | 21% | 1013.8 hPa | 0 mm | - | - | - |
| 1777721379 | 30° C | 22% | 1014 hPa | 0 mm | - | - | - |
| 1777720479 | 30.56° C | 22% | 1014.1 hPa | 0 mm | - | - | - |
| 1777719579 | 31.67° C | 22% | 1014.2 hPa | 0 mm | - | - | - |
| 1777718679 | 30° C | 22% | 1014.4 hPa | 0 mm | - | - | - |
| 1777717779 | 30.56° C | 22% | 1014.5 hPa | 0 mm | - | - | - |
| 1777716879 | 30° C | 23% | 1014.7 hPa | 0 mm | - | - | - |
| 1777715979 | 29.44° C | 23% | 1015 hPa | 0 mm | - | - | - |
| 1777715079 | 28.33° C | 25% | 1015 hPa | 0 mm | - | - | - |
| 1777714179 | 28.33° C | 25% | 1015 hPa | 0 mm | - | - | - |
| 1777713279 | 28.33° C | 26% | 1015.1 hPa | 0 mm | - | - | - |
| 1777712379 | 27.78° C | 26% | 1015.3 hPa | 0 mm | - | - | - |
| 1777711479 | 28.89° C | 27% | 1015.3 hPa | 0 mm | - | - | - |
| 1777710579 | 28.33° C | 28% | 1015.4 hPa | 0 mm | - | - | - |
| 1777709679 | 27.78° C | 29% | 1015.5 hPa | 0 mm | - | - | - |
| 1777708780 | 26.67° C | 30% | 1015.5 hPa | 0 mm | - | - | - |
| 1777707880 | 27.22° C | 30% | 1015.6 hPa | 0 mm | - | - | - |
| 1777706980 | 25° C | 33% | 1015.6 hPa | 0 mm | - | - | - |
| 1777706080 | 25° C | 33% | 1015.8 hPa | 0 mm | - | - | - |
| 1777705180 | 23.89° C | 35% | 1015.7 hPa | 0 mm | - | - | - |
| 1777704280 | 25° C | 35% | 1015.6 hPa | 0 mm | - | - | - |
| 1777703380 | 23.89° C | 38% | 1015.6 hPa | 0 mm | - | - | - |
| 1777702414 | 20.56° C | 42% | 1015.7 hPa | 0 mm | - | - | - |
| 1777701514 | 20° C | 45% | 1015.8 hPa | 0 mm | - | - | - |
| 1777700614 | 18.89° C | 49% | 1015.7 hPa | 0 mm | - | - | - |
* Rain latest hour (hover to see other rain measurements)
** Current wind speed in m/s (hover to see current wind gust speed)